Showing default

OPS 3165, 8482

Orbit data source: Space-Track

OPS 3165, 8482 is a payload satellite owned by SAMSO (US) in GEO that was launched on Sun, 14 Dec 1975 UTC via a TITAN IIIC launch vehicle from the Air Force Eastern Test Range (AFETR). Payload-class satellites include a variety of spacecraft equipped with specific instruments for various scientific and technological missions. These include communications satellites like Starlink; space stations such as the ISS; scientific satellites like the Hubble; Earth observation satellites from companies like Planet Labs, Umbra, and HawkEye 360; GPS; miniature CubeSats for education and research; and military/defense satellites.

Loading next visibility...
Identifier
8482, 1975-118A
Orbit
GEO
Country
Flag of USUS
Related business
Manufacturer
TRW
Mission
Spacecraft
Bus & Motor
DSP P2, MRE-4
Mass
1,040 kg wet, ~980 kg dry
Launch date (UTC)
1975-12-14 (50 years ago)
Launch vehicle
TITAN IIIC
Launch site
Air Force Eastern Test Range (AFETR)
Object type
Payload
Rocket body
Debris
Shape & HBR
Unknown
Radar Cross Section
RCS unknown

Expand to show TLE details & history
Last TLE update: 8 hours ago

TLE from 8 hours ago
0 OPS 3165
1 08482U 75118A   25340.91512159 -.00000274  00000-0  00000-0 0  9995
2 08482   2.7857 262.7753 0035574  18.2356  68.4960  1.00475695 24527
Epoch: 2025-12-06T21:57Z
TLE epoch observation values (Epoch: 2025-12-06T21:57:46.505Z)
Latitude
2.79373°
Longitude
-55.51188°
Altitude
35,674.576 km
Speed
3.081 km/s
True Right ascension
23h 19m 28s
True Declination
2° 47' 27"
Sunlit
Object was in daylight at epoch
Visualization orbit readout
Latitude
Unknown
Longitude
Unknown
Altitude
Unknown
Speed
Unknown
Apparent Right ascension
Unknown
Apparent Declination
Unknown
Sunlit
N/A
Visualization observer readout
Local Sidereal Time
04:25:50
Azimuth
Unknown
Elevation
Unknown
Doppler factor
Unknown
Orbital elements
Apogee altitude
35,880.394 km
Perigee altitude
35,580.799 km
Semi-major axis
42,108.733 km
Eccentricity
0.00356
Inclination
2.7857°
RAAN
262.7753°
Arg. of periapsis
18.2356°
True anomaly
68.87589°
Mean anomaly
68.496°
Eccentric anomaly
68.68588°
Mean motion
0.25118 °/min
Orbital period
1,433.24 mins
BSTAR
0
Loading maneuver chart data...
Computing Atmospheric mass density...
Loading historical data...
Loading historical data...
Loading historical data...
Loading historical data...
Loading historical data...
Loading historical data...
Loading historical data...
Other satellites on launch #118 in the year 1975 (1975-12-14 UTC)

Documentation

Showing up to 5 results
|